TDF 2

Satellite information

Favourite Embed

Satellite Type and Status

PAYLOADIN ORBIT

Key statistics

Satellite TDF 2 at a glance.

Uptime

12927

Days in orbit

Revolutions

≈ 1.0

Per day

Orbit

OTHER

Other

Inclination

15.2

Latest

Satellite identification and parameters

Extended collection of information and parameters for TDF 2.

Object identification

Identified? True

Debris? False

Object name: TDF 2

International designator: 1990-063A

Object number (NORAD): 20705

Object ID (CCSDS): 20705

Country: FRANCE (FR)

Current information (Y/N): Y

RCS size: LARGE

Orbital parameters

Period: 1460.298 minutes

Inclination: 15.183 deg

SMA: 42637.111 km

Apoapsis: 36465.429 km

Periapsis: 36052.522 km

RAAN: 359.779 deg

Eccentricy: 0.0048421

Argument of periapsis: 318.9161 deg

Mean anomaly: 53.5389 deg

Mean motion: 0.98610035 rev/day

Mean motion (dot): -0.00000218 rev/day2

B* drag term: 0.0 1/REarth

Two-line elements (TLE)

Creation date: Dec. 12, 2025, 7:16 a.m.

Reference frame: TEME

Reference center: EARTH

Epoch: Dec. 11, 2025, 9:53 p.m. UTC

TLE line 0: 0 TDF 2

TLE line 1: 1 20705U 90063A 25345.91229041 -.00000218 00000-0 00000+0 0 9990

TLE line 2: 2 20705 15.1830 359.7790 0048421 318.9161 53.5389 0.98610035130720

Live tracking on map

Real-time ground track for satellite TDF 2.

In-orbit conjunctions

There are no conjunctions computed for TDF 2, at the moment. Check back to stay up to date, as we update our databases every day.

Go to all conjunctions

Associated space launch

French and German direct broadcasting satellites

TDF 2 was lifted into orbit during the mission ‘Ariane 44L | TDF 2 & DFS-Kopernikus 2’, on board a Ariane 44L space rocket.

The launch took place on July 24, 1990, 10:25 p.m. from Ariane Launch Area 2.

For more information about the launch, click the button.

Launch to space Ariane 44L | TDF 2 & DFS-Kopernikus 2
Ariane 44L | TDF 2 & DFS-Kopernikus 2

Agency: N/A

Status: Launch Successful

Launch date: July 24, 1990, 10:25 p.m. UTC

Rocket: Ariane 44L

Launch pad: Ariane Launch Area 2

Location: Guiana Space Centre, French Guiana

...

Latest news about this satellite

There are no fresh news available about this satellite. Check back as we update our databases every day.


Newsletter sign-up

Weekly statistics, charts and insights to help you stay on top of the space industry.